Simultaneous Nadir Overpasses (SNOs) Predictions

Prediction of SNOs between LANDSAT-8 and METOP-B Satellite Orbit:

Table of predicted SNOs for the next 14.0 days since TLE Epoch: 6/1/2018
Index Date (LANDSAT-8) Time (LANDSAT-8) Lat,Lon (LANDSAT-8) SZA (LANDSAT-8 ) Date (METOP-B) Time (METOP-B) Lat,Lon (METOP-B) SZA (METOP-B ) Distance(km) Time Diff (sec)
1 06/02/2018 20:53:34 81.19, -92.41 61.24 06/02/2018 20:52:34 81.20, -92.39 61.22 0.73 60
2 06/02/2018 21:43:00 -81.21, 75.53 118.72 06/02/2018 21:43:14 -81.21, 75.40 118.73 2.10 14
3 06/05/2018 16:27:48 81.21, -25.75 60.94 06/05/2018 16:26:54 81.20, -25.84 60.90 1.57 54
4 06/05/2018 17:17:14 -81.22, 142.21 119.02 06/05/2018 17:17:33 -81.23, 142.34 119.00 2.13 19
5 06/08/2018 12:02:02 81.19, 40.50 60.62 06/08/2018 12:01:14 81.19, 40.30 60.58 3.30 48
6 06/08/2018 12:51:28 -81.21,-151.51 119.33 06/08/2018 12:51:53 -81.22,-151.51 119.32 0.57 25
7 06/11/2018 07:36:16 81.20, 107.08 60.41 06/11/2018 07:35:33 81.21, 107.20 60.41 2.13 43
8 06/11/2018 08:25:42 -81.22, -84.89 119.54 06/11/2018 08:26:13 -81.22, -84.99 119.54 1.71 31
9 06/14/2018 03:10:30 81.21, 173.63 60.24 06/14/2018 03:09:53 81.21, 173.69 60.23 1.13 37




NCC Satellite Simultaneous Nadir Overpasses (SNOs) Prediction Service
